TimeMST,TemperatureF,Dew PointF,Humidity,Sea Level PressureIn,VisibilityMPH,Wind Direction,Wind SpeedMPH,Gust SpeedMPH,PrecipitationIn,Events,Conditions,WindDirDegrees,DateUTC
12:53 AM,27.0,21.0,78,30.28,-9999.0,NNW,3.5,-,N/A,,Clear,330,2012-11-15 07:53:00
1:53 AM,26.1,21.0,81,30.31,-9999.0,North,3.5,-,N/A,,Clear,360,2012-11-15 08:53:00
2:53 AM,23.0,19.0,85,30.35,-9999.0,NNW,3.5,-,N/A,,Clear,330,2012-11-15 09:53:00
3:53 AM,24.1,19.0,81,30.36,-9999.0,Calm,Calm,-,N/A,,Mostly Cloudy,0,2012-11-15 10:53:00
4:53 AM,19.9,16.0,85,30.41,-9999.0,Calm,Calm,-,N/A,,Partly Cloudy,0,2012-11-15 11:53:00
5:53 AM,21.0,17.1,85,30.41,-9999.0,Calm,Calm,-,N/A,,Clear,0,2012-11-15 12:53:00
6:53 AM,18.0,14.0,84,30.46,-9999.0,South,3.5,-,N/A,,Clear,180,2012-11-15 13:53:00
7:53 AM,24.1,19.9,84,30.44,-9999.0,Calm,Calm,-,N/A,,Clear,0,2012-11-15 14:53:00
8:53 AM,32.0,24.1,73,30.42,-9999.0,Calm,Calm,-,N/A,,Mostly Cloudy,0,2012-11-15 15:53:00
9:53 AM,39.0,25.0,57,30.40,-9999.0,SSE,5.8,-,N/A,,Clear,150,2012-11-15 16:53:00
10:53 AM,45.0,24.1,44,30.37,-9999.0,SSE,10.4,-,N/A,,Clear,150,2012-11-15 17:53:00
11:53 AM,48.0,21.9,36,30.33,-9999.0,SE,11.5,21.9,N/A,,Clear,140,2012-11-15 18:53:00
12:53 PM,50.0,23.0,35,30.30,-9999.0,SSE,16.1,-,N/A,,Clear,150,2012-11-15 19:53:00
1:53 PM,50.0,21.0,32,30.28,-9999.0,SSW,11.5,-,N/A,,Scattered Clouds,210,2012-11-15 20:53:00
2:53 PM,50.0,21.0,32,30.29,-9999.0,South,9.2,-,N/A,,Clear,180,2012-11-15 21:53:00
3:53 PM,48.0,19.0,32,30.30,-9999.0,WSW,3.5,-,N/A,,Clear,240,2012-11-15 22:53:00
4:53 PM,39.0,19.9,46,30.34,-9999.0,SE,3.5,-,N/A,,Clear,140,2012-11-15 23:53:00
5:53 PM,32.0,19.0,59,30.35,-9999.0,SSE,6.9,-,N/A,,Clear,150,2012-11-16 00:53:00
6:53 PM,32.0,21.0,64,30.37,-9999.0,SE,8.1,-,N/A,,Clear,130,2012-11-16 01:53:00
7:53 PM,30.0,21.9,72,30.34,-9999.0,SE,8.1,-,N/A,,Clear,140,2012-11-16 02:53:00
8:53 PM,34.0,24.1,67,30.29,-9999.0,SSE,4.6,-,N/A,,Clear,150,2012-11-16 03:53:00
9:53 PM,28.9,23.0,78,30.27,-9999.0,SSE,6.9,-,N/A,,Clear,150,2012-11-16 04:53:00
10:53 PM,26.1,21.0,81,30.24,-9999.0,SE,6.9,-,N/A,,Clear,140,2012-11-16 05:53:00
11:53 PM,25.0,21.0,85,30.22,-9999.0,Calm,Calm,-,N/A,,Clear,0,2012-11-16 06:53:00